Location: Ay?beleni
(36.6500°N, 30.3000°E)
Time: 03:42:41
(UTC+00:00)

H-2A R/B - Pass Details

Date: 16 October 2021
Orbit: 732 x 837 km, 98.2° (Epoch: 08 December)

Event Time Altitude Azimuth Distance (km) Brightness Sun altitude
Rises 16:40:39 0° 184° (S) 3,280 5.3 -16.7°
Reaches altitude 10° 16:43:04 10° 192° (SSW) 2,371 4.7 -17.2°
Maximum altitude 16:48:01 42° 262° (W) 1,157 3.4 -18.2°
Drops below altitude 10° 16:53:08 10° 332° (NNW) 2,438 5.0 -19.2°
Sets 16:55:39 0° 340° (NNW) 3,384 5.7 -19.7°
